This demonstration page uses our WeatherBlox Daily Observations layout. Learn more.

Left ArrowRight Arrow

38.80484, -77.04692

Hourly Observations for May 8, 2015

Temp ( °F °C ) Dew Point ( °F °C ) Humidity (%) Winds ( mph kmh ) Pressure ( in mb ) Visibility ( mi km ) Precip ( " mm )
12:52 am 00:52 Mostly Clear 68 20 58 14.4 70 70 SSE 5 7 30.13 1020 10 16 0.00 0.00
1:52 am 01:52 Mostly Clear 67 19.4 58 14.4 73 73 SSE 5 7 30.12 1020 10 16 0.00 0.00
2:52 am 02:52 Partly Cloudy 66 18.9 59 15 78 78 SSE 3 6 30.12 1020 10 16 0.00 0.00
3:52 am 03:52 Partly Cloudy 65 18.3 60 15.6 84 84 S 5 7 30.13 1020 10 16 0.00 0.00
4:52 am 04:52 Partly Cloudy 65 18.3 60 15.6 84 84 Calm 30.12 1020 10 16 0.00 0.00
5:52 am 05:52 Partly Cloudy 65 18.3 59 15 81 81 Calm 30.14 1021 10 16 0.00 0.00
6:52 am 06:52 Mostly Cloudy 65 18.3 60 15.6 84 84 Calm 30.15 1021 9 14 0.00 0.00
7:52 am 07:52 Mostly Cloudy 67 19.4 61 16.1 81 81 Calm 30.16 1022 9 14 0.00 0.00
8:52 am 08:52 Cloudy 69 20.6 61 16.1 76 76 Calm 30.16 1021 10 16 0.00 0.00
9:52 am 09:52 Cloudy 72 22.2 60 15.6 66 66 Calm 30.16 1021 10 16 0.00 0.00
10:52 am 10:52 Cloudy 77 25 59 15 54 54 Calm 30.16 1022 10 16 0.00 0.00
11:52 am 11:52 Cloudy 79 26.1 61 16.1 54 54 S 6 9 30.16 1022 10 16 0.00 0.00
12:44 pm 12:44 Mostly Cloudy 81 27 63 17 54 54 SSW 7 11 30.15 1021 10 16 0.00 0.00
12:52 pm 12:52 Mostly Cloudy 81 27.2 62 16.7 53 53 S 7 11 30.15 1021 10 16 0.00 0.00
1:52 pm 13:52 Cloudy 82 27.8 61 16.1 49 49 VRB 6 9 30.14 1021 10 16 0.00 0.00
2:52 pm 14:52 Cloudy 83 28.3 59 15 44 44 SSW 6 9 30.11 1020 10 16 0.00 0.00
3:52 pm 15:52 Mostly Cloudy 83 28.3 60 15.6 46 46 S 3 6 30.10 1019 10 16 0.00 0.00
4:52 pm 16:52 Cloudy 82 27.8 61 16.1 49 49 SSE 6 9 30.10 1019 10 16 0.00 0.00
5:52 pm 17:52 Mostly Cloudy 82 27.8 60 15.6 47 47 ESE 10 17 30.09 1019 10 16 0.00 0.00
6:52 pm 18:52 Mostly Cloudy 79 26.1 57 13.9 47 47 SE 9 15 30.09 1019 10 16 0.00 0.00
7:52 pm 19:52 Mostly Cloudy 77 25 58 14.4 52 52 SE 7 11 30.10 1019 10 16 0.00 0.00
8:52 pm 20:52 Partly Cloudy 74 23.3 57 13.9 56 56 SSE 6 9 30.11 1020 10 16 0.00 0.00
9:52 pm 21:52 Mostly Cloudy 72 22.2 58 14.4 61 61 S 8 13 30.15 1021 10 16 0.00 0.00
10:52 pm 22:52 Mostly Cloudy 71 21.7 60 15.6 68 68 S 10 17 30.16 1021 10 16 0.00 0.00
11:52 pm 23:52 Mostly Clear 69 20.6 61 16.1 76 76 S 9 15 30.16 1021 10 16 0.00 0.00

Powered by AerisWeather